Waukesha, WI

11:42 AM CDT on March 27, 2017 (GMT -0500)
Waukesha County

Weather History for KUES - September, 2013

Change the Weather History Date:

Tuesday, September 3, 2013

  Actual Average Record
Temperature  
Mean Temperature 60 °F -  
Max Temperature 71 °F 77 °F 94 °F (1953)
Min Temperature 48 °F 58 °F 45 °F (1955)
Degree Days  
Heating Degree Days 6    
Growing Degree Days 10 (Base 50)    
Moisture  
Dew Point 50 °F    
Average Humidity 80    
Maximum Humidity 100    
Minimum Humidity 50    
Precipitation  
Precipitation 0.00 in - - ()
Sea Level Pressure  
Sea Level Pressure 30.05 in    
Wind  
Wind Speed 2 mph (West)    
Max Wind Speed 8 mph    
Max Gust Speed -    
Visibility 10 miles    
Events      
Averages and records for this station are not official NWS values.
T = Trace of Precipitation, MM = Missing Value Source: NWS Daily Summary

Daily Weather History Graph

Daily Weather History Graph

Search for Another Location

Airport or City:

Trip Planner

Search our weather history database for the weather conditions in past years. The results will help you decide how hot, cold, wet, or windy it might be!

Date:

Astronomy

Sep. 03, 2013 Rise Set
Actual Time 6:19 AM CDT 7:23 PM CDT
Civil Twilight 5:50 AM CDT 7:52 PM CDT
Nautical Twilight 5:15 AM CDT 8:27 PM CDT
Astronomical Twilight 4:39 AM CDT 9:03 PM CDT
Moon 4:32 AM CDT (9/3) 6:11 PM CDT (9/3)
Length of Visible Light 14h 02m
Length of Day
13h 04m
Waning Crescent, 3% of the Moon is Illuminated
Sep 3
Waning Crescent
Sep 5
New
Sep 12
First Quarter
Sep 19
Full
Sep 26
Last Quarter

Hourly Weather History & Observations

Time (CDT) Temp. Dew Point Humidity Pressure Visibility Wind Dir Wind Speed Gust Speed Precip Events Conditions
12:15 AM 53.6 °F 50.0 °F 88% 30.02 in 10.0 mi Calm Calm - N/A   Clear
12:35 AM 53.6 °F 50.0 °F 88% 30.03 in 10.0 mi Calm Calm - N/A   Clear
12:55 AM 51.8 °F 50.0 °F 94% 30.03 in 10.0 mi Calm Calm - N/A   Clear
1:15 AM 51.8 °F 50.0 °F 94% 30.03 in 10.0 mi Calm Calm - N/A   Clear
1:35 AM 51.8 °F 48.2 °F 88% 30.03 in 10.0 mi Calm Calm - N/A   Clear
1:55 AM 51.8 °F 46.4 °F 82% 30.03 in 10.0 mi WNW 3.5 mph - N/A   Clear
2:15 AM 50.0 °F 46.4 °F 87% 30.03 in 10.0 mi WNW 3.5 mph - N/A   Clear
2:35 AM 51.8 °F 48.2 °F 88% 30.03 in 10.0 mi WNW 3.5 mph - N/A   Clear
2:55 AM 51.8 °F 48.2 °F 88% 30.03 in 10.0 mi Calm Calm - N/A   Clear
3:15 AM 51.8 °F 48.2 °F 88% 30.04 in 10.0 mi WNW 3.5 mph - N/A   Clear
3:35 AM 50.0 °F 46.4 °F 87% 30.05 in 10.0 mi WNW 3.5 mph - N/A   Clear
3:55 AM 50.0 °F 48.2 °F 94% 30.05 in 10.0 mi West 3.5 mph - N/A   Clear
4:15 AM 50.0 °F 48.2 °F 94% 30.05 in 10.0 mi WNW 3.5 mph - N/A   Clear
4:35 AM 50.0 °F 46.4 °F 87% 30.05 in 10.0 mi Calm Calm - N/A   Clear
4:55 AM 50.0 °F 48.2 °F 94% 30.05 in 10.0 mi Calm Calm - N/A   Clear
5:15 AM 50.0 °F 48.2 °F 94% 30.06 in 10.0 mi Calm Calm - N/A   Clear
5:35 AM 50.0 °F 46.4 °F 87% 30.06 in 10.0 mi WNW 3.5 mph - N/A   Clear
5:45 AM 50.0 °F 48.2 °F 94% 30.06 in 10.0 mi WNW 3.5 mph - N/A   Clear
6:45 AM 48.2 °F 48.2 °F 100% 30.07 in 10.0 mi West 3.5 mph - N/A   Clear
7:45 AM 53.6 °F 51.8 °F 94% 30.09 in 10.0 mi WNW 4.6 mph - N/A   Clear
8:45 AM 57.2 °F 53.6 °F 88% 30.11 in 10.0 mi West 3.5 mph - N/A   Clear
9:45 AM 60.8 °F 53.6 °F 77% 30.11 in 10.0 mi WNW 4.6 mph - N/A   Clear
10:45 AM 62.6 °F 51.8 °F 68% 30.11 in 10.0 mi West 6.9 mph - N/A   Partly Cloudy
11:45 AM 64.4 °F 51.8 °F 64% 30.10 in 10.0 mi WNW 8.1 mph - N/A   Partly Cloudy
12:45 PM 66.2 °F 51.8 °F 60% 30.09 in 10.0 mi West 4.6 mph - N/A   Partly Cloudy
1:45 PM 69.8 °F 53.6 °F 56% 30.08 in 10.0 mi NW 5.8 mph - N/A   Scattered Clouds
2:45 PM 69.8 °F 51.8 °F 53% 30.06 in 10.0 mi West 6.9 mph - N/A   Mostly Cloudy
3:45 PM 69.8 °F 51.8 °F 53% 30.04 in 10.0 mi West 6.9 mph - N/A   Partly Cloudy
4:45 PM 71.6 °F 51.8 °F 50% 30.04 in 10.0 mi SW 6.9 mph - N/A   Scattered Clouds
5:45 PM 69.8 °F 53.6 °F 56% 30.03 in 10.0 mi WSW 8.1 mph - N/A   Scattered Clouds
6:45 PM 66.2 °F 53.6 °F 64% 30.03 in 10.0 mi SW 4.6 mph - N/A   Clear
7:45 PM 62.6 °F 53.6 °F 72% 30.04 in 10.0 mi SW 3.5 mph - N/A   Clear
8:45 PM 60.8 °F 51.8 °F 72% 30.05 in 10.0 mi WSW 3.5 mph - N/A   Clear
9:15 PM 59.0 °F 51.8 °F 77% 30.04 in 10.0 mi WSW 4.6 mph - N/A   Clear
9:35 PM 59.0 °F 51.8 °F 77% 30.04 in 10.0 mi SW 4.6 mph - N/A   Clear
9:55 PM 59.0 °F 51.8 °F 77% 30.05 in 10.0 mi SW 5.8 mph - N/A   Clear
10:15 PM 59.0 °F 50.0 °F 72% 30.04 in 10.0 mi SW 4.6 mph - N/A   Clear
10:35 PM 57.2 °F 51.8 °F 82% 30.05 in 10.0 mi Calm Calm - N/A   Clear
10:55 PM 53.6 °F 50.0 °F 88% 30.05 in 10.0 mi SW 3.5 mph - N/A   Clear
11:15 PM 53.6 °F 50.0 °F 88% 30.04 in 10.0 mi Calm Calm - N/A   Clear
11:35 PM 51.8 °F 50.0 °F 94% 30.04 in 10.0 mi SW 3.5 mph - N/A   Clear
11:55 PM 55.4 °F 50.0 °F 82% 30.05 in 10.0 mi Calm Calm - N/A   Clear